| time (UTC) | temp C | wind direction | speed KPH | gust KPH | rain 1hr cm | rain 24hr cm | rain mn cm | humidity % | barometer mb |
| 20260506193052 | 17 | 127 | 8.0 | 25.7 | 0.00 | 0.00 | 0.00 | 82 | 1006.6 |
| 20260506191556 | 17 | 150 | 6.4 | 27.4 | 0.00 | 0.00 | 0.00 | 85 | 1006.6 |
| 20260506190055 | 16 | 167 | 8.0 | 17.7 | 0.00 | 0.00 | 0.00 | 86 | 1006.8 |
| 20260506184604 | 16 | 123 | 9.7 | 24.1 | 0.00 | 0.00 | 0.00 | 87 | 1007.1 |
| 20260506183105 | 16 | 159 | 6.4 | 22.5 | 0.00 | 0.00 | 0.00 | 84 | 1007.4 |
| 20260506181558 | 16 | 146 | 8.0 | 24.1 | 0.00 | 0.00 | 0.00 | 82 | 1007.4 |
| 20260506180101 | 16 | 114 | 12.9 | 29.0 | 0.00 | 0.00 | 0.00 | 82 | 1007.6 |
| 20260506174549 | 16 | 160 | 12.9 | 29.0 | 0.00 | 0.00 | 0.00 | 81 | 1007.9 |
| 20260506173108 | 16 | 132 | 9.7 | 29.0 | 0.00 | 0.00 | 0.00 | 81 | 1008.1 |
| 20260506171600 | 17 | 126 | 12.9 | 24.1 | 0.00 | 0.00 | 0.00 | 79 | 1008.0 |
| 20260506170054 | 17 | 116 | 8.0 | 27.4 | 0.00 | 0.00 | 0.00 | 81 | 1008.1 |
| 20260506164555 | 17 | 158 | 12.9 | 30.6 | 0.00 | 0.00 | 0.00 | 80 | 1008.6 |
| 20260506163055 | 17 | 164 | 12.9 | 32.2 | 0.00 | 0.00 | 0.00 | 81 | 1009.0 |
| 20260506161603 | 17 | 176 | 9.7 | 32.2 | 0.00 | 0.00 | 0.00 | 81 | 1009.1 |
| 20260506160055 | 17 | 139 | 9.7 | 25.7 | 0.00 | 0.00 | 0.00 | 81 | 1009.3 |
| 20260506154556 | 17 | 122 | 9.7 | 33.8 | 0.00 | 0.00 | 0.00 | 81 | 1009.2 |
| 20260506153054 | 17 | 122 | 12.9 | 33.8 | 0.00 | 0.00 | 0.00 | 80 | 1009.4 |
| 20260506151605 | 17 | 111 | 11.3 | 27.4 | 0.00 | 0.00 | 0.00 | 81 | 1009.4 |
| 20260506150055 | 17 | 117 | 11.3 | 25.7 | 0.00 | 0.00 | 0.00 | 80 | 1009.3 |
| 20260506144548 | 17 | 163 | 11.3 | 30.6 | 0.00 | 0.00 | 0.00 | 78 | 1009.5 |
| 20260506143055 | 17 | 116 | 11.3 | 30.6 | 0.00 | 0.00 | 0.00 | 79 | 1009.5 |
| 20260506141549 | 16 | 157 | 12.9 | 33.8 | 0.00 | 0.00 | 0.00 | 80 | 1009.6 |
| 20260506140103 | 17 | 128 | 9.7 | 32.2 | 0.00 | 0.00 | 0.00 | 80 | 1009.5 |
| 20260506134553 | 17 | 118 | 14.5 | 32.2 | 0.00 | 0.00 | 0.00 | 78 | 1009.4 |
| 20260506133052 | 17 | 134 | 8.0 | 25.7 | 0.00 | 0.00 | 0.00 | 78 | 1009.7 |
| 20260506131555 | 17 | 87 | 12.9 | 33.8 | 0.00 | 0.00 | 0.00 | 78 | 1009.9 |
| 20260506130110 | 17 | 112 | 14.5 | 30.6 | 0.00 | 0.00 | 0.00 | 79 | 1009.8 |
| 20260506124553 | 16 | 220 | 11.3 | 30.6 | 0.00 | 0.00 | 0.00 | 81 | 1009.8 |
| 20260506123055 | 16 | 113 | 8.0 | 32.2 | 0.00 | 0.00 | 0.00 | 82 | 1009.6 |
| 20260506121603 | 16 | 145 | 16.1 | 35.4 | 0.00 | 0.00 | 0.00 | 81 | 1009.6 |
| 20260506120100 | 16 | 109 | 11.3 | 27.4 | 0.00 | 0.00 | 0.00 | 82 | 1009.5 |
| 20260506114554 | 15 | 132 | 11.3 | 25.7 | 0.00 | 0.00 | 0.00 | 83 | 1009.6 |
| 20260506113049 | 15 | 163 | 9.7 | 25.7 | 0.00 | 0.00 | 0.00 | 84 | 1009.7 |
| 20260506111551 | 15 | 186 | 11.3 | 29.0 | 0.00 | 0.00 | 0.00 | 85 | 1009.6 |
| 20260506110100 | 15 | 132 | 12.9 | 25.7 | 0.00 | 0.00 | 0.00 | 86 | 1009.7 |
| 20260506104553 | 14 | 258 | 12.9 | 25.7 | 0.00 | 0.00 | 0.00 | 86 | 1009.4 |
| 20260506103049 | 14 | 163 | 9.7 | 27.4 | 0.00 | 0.00 | 0.00 | 87 | 1009.6 |
| 20260506101559 | 14 | 171 | 8.0 | 22.5 | 0.00 | 0.00 | 0.00 | 87 | 1009.5 |
| 20260506100051 | 14 | 167 | 6.4 | 22.5 | 0.00 | 0.00 | 0.00 | 87 | 1009.5 |
| 20260506094556 | 14 | 157 | 4.8 | 24.1 | 0.00 | 0.00 | 0.00 | 86 | 1009.3 |
| 20260506093100 | 14 | 146 | 9.7 | 25.7 | 0.00 | 0.00 | 0.00 | 86 | 1009.6 |
| 20260506091552 | 14 | 186 | 9.7 | 25.7 | 0.00 | 0.00 | 0.00 | 86 | 1009.6 |
| 20260506090050 | 14 | 128 | 11.3 | 29.0 | 0.00 | 0.00 | 0.00 | 86 | 1009.8 |
| 20260506084553 | 14 | 126 | 8.0 | 24.1 | 0.00 | 0.00 | 0.00 | 86 | 1010.0 |
| 20260506083053 | 14 | 126 | 8.0 | 20.9 | 0.00 | 0.00 | 0.00 | 86 | 1010.1 |
| 20260506081549 | 14 | 150 | 6.4 | 16.1 | 0.00 | 0.00 | 0.00 | 85 | 1009.9 |
| 20260506073058 | 15 | 157 | 9.7 | 25.7 | 0.00 | 0.00 | 0.00 | 84 | 1010.3 |
| 20260506071608 | 15 | 131 | 11.3 | 27.4 | 0.00 | 0.00 | 0.00 | 84 | 1010.3 |
| 20260506061551 | 15 | 138 | 9.7 | 30.6 | 0.00 | 0.00 | 0.00 | 83 | 1010.4 |
| 20260506044559 | 15 | 162 | 9.7 | 27.4 | 0.00 | 0.00 | 0.00 | 80 | 1010.9 |
| 20260506043054 | 15 | 141 | 14.5 | 32.2 | 0.00 | 0.00 | 0.00 | 80 | 1010.9 |
| 20260506041604 | 15 | 121 | 11.3 | 32.2 | 0.00 | 0.00 | 0.00 | 80 | 1011.1 |
| 20260506040054 | 15 | 204 | 11.3 | 29.0 | 0.00 | 0.00 | 0.00 | 79 | 1010.9 |
| 20260506034554 | 16 | 244 | 14.5 | 33.8 | 0.00 | 0.00 | 0.00 | 78 | 1011.0 |
| 20260506033100 | 16 | 123 | 11.3 | 37.0 | 0.00 | 0.00 | 0.00 | 78 | 1011.2 |
| 20260506031547 | 16 | 140 | 12.9 | 37.0 | 0.00 | 0.00 | 0.00 | 77 | 1011.1 |
| 20260506030053 | 16 | 137 | 14.5 | 32.2 | 0.00 | 0.00 | 0.00 | 76 | 1011.1 |
| 20260506024553 | 16 | 138 | 11.3 | 32.2 | 0.00 | 0.00 | 0.00 | 76 | 1011.0 |
| 20260506023053 | 16 | 165 | 12.9 | 33.8 | 0.00 | 0.00 | 0.00 | 76 | 1011.3 |
| 20260506021556 | 16 | 154 | 11.3 | 33.8 | 0.00 | 0.00 | 0.00 | 76 | 1011.3 |
| 20260506020051 | 16 | 172 | 12.9 | 25.7 | 0.00 | 0.00 | 0.00 | 76 | 1011.4 |
| 20260506014555 | 16 | 125 | 12.9 | 30.6 | 0.00 | 0.00 | 0.00 | 76 | 1011.3 |
| 20260506013052 | 16 | 138 | 11.3 | 29.0 | 0.00 | 0.00 | 0.00 | 76 | 1011.2 |
| 20260506011551 | 16 | 163 | 12.9 | 29.0 | 0.00 | 0.00 | 0.00 | 76 | 1011.1 |
| 20260506010051 | 16 | 163 | 8.0 | 25.7 | 0.00 | 0.00 | 0.00 | 76 | 1010.8 |
| 20260506004558 | 16 | 192 | 11.3 | 25.7 | 0.00 | 0.00 | 0.00 | 75 | 1010.7 |
| 20260506003050 | 17 | 190 | 12.9 | 40.2 | 0.00 | 0.00 | 0.00 | 73 | 1010.8 |
| 20260506001609 | 17 | 110 | 11.3 | 35.4 | 0.00 | 0.00 | 0.00 | 72 | 1010.7 |
| 20260506000051 | 17 | 144 | 9.7 | 35.4 | 0.00 | 0.00 | 0.00 | 71 | 1010.4 |
| 20260505234559 | 17 | 155 | 14.5 | 35.4 | 0.00 | 0.00 | 0.00 | 69 | 1010.2 |
| 20260505233057 | 18 | 92 | 12.9 | 30.6 | 0.00 | 0.00 | 0.00 | 68 | 1010.2 |
| 20260505231557 | 18 | 92 | 11.3 | 32.2 | 0.00 | 0.00 | 0.00 | 67 | 1010.0 |
| 20260505230113 | 18 | 165 | 14.5 | 46.7 | 0.00 | 0.00 | 0.00 | 67 | 1010.0 |
| 20260505224611 | 18 | 225 | 17.7 | 38.6 | 0.00 | 0.00 | 0.00 | 67 | 1009.9 |
| 20260505223100 | 18 | 196 | 16.1 | 46.7 | 0.00 | 0.00 | 0.00 | 67 | 1009.8 |
| 20260505221553 | 18 | 184 | 14.5 | 43.5 | 0.00 | 0.00 | 0.00 | 66 | 1009.8 |
| 20260505220052 | 19 | 138 | 14.5 | 37.0 | 0.00 | 0.00 | 0.00 | 65 | 1009.8 |
| 20260505214605 | 19 | 124 | 16.1 | 37.0 | 0.00 | 0.00 | 0.00 | 66 | 1009.6 |
| 20260505213100 | 19 | 132 | 16.1 | 40.2 | 0.00 | 0.00 | 0.00 | 64 | 1009.4 |
| 20260505211602 | 20 | 110 | 16.1 | 43.5 | 0.00 | 0.00 | 0.00 | 63 | 1009.5 |
| 20260505210107 | 20 | 190 | 12.9 | 30.6 | 0.00 | 0.00 | 0.00 | 63 | 1009.1 |
| 20260505204549 | 20 | 187 | 16.1 | 33.8 | 0.00 | 0.00 | 0.00 | 63 | 1009.0 |
| 20260505203051 | 20 | 128 | 12.9 | 35.4 | 0.00 | 0.00 | 0.00 | 65 | 1009.0 |
| 20260505201559 | 20 | 132 | 17.7 | 40.2 | 0.00 | 0.00 | 0.00 | 65 | 1009.2 |
| 20260505200057 | 20 | 151 | 16.1 | 35.4 | 0.00 | 0.00 | 0.00 | 65 | 1009.1 |
| 20260505194558 | 20 | 109 | 17.7 | 37.0 | 0.00 | 0.00 | 0.00 | 66 | 1009.3 |